Flag for United Kingdom Weather past 2 weeks in Haywards Heath, England, United Kingdom

55 °F

Passing clouds.

Feels Like: 51 °F
Forecast: N/A
Wind: 21 mph from Southwest

Location: London / Gatwick Airport

Current Time: Nov 30, 2015 at 7:17:10 PM

Latest Report: Nov 30, 2015 at 6:50 PM

Visibility: N/A

Pressure: 29.98 "Hg

Humidity: 82%

Dew point: 50 °F

Location of Haywards HeathLocation

Historic Weather in Haywards Heath — Graph


Haywards Heath temperature yesterday

Maximum temperature yesterday: 55 °F (at 12:50 PM)
Minimum temperature yesterday: 48 °F (at 1:50 AM)
Average temperature yesterday: 53 °F

Past Weeks' High & Low Weather Summary

High59 °F (Nov 17, 2:20 PM)100% (Nov 16, 5:50 AM)30.30 "Hg (Nov 16, 5:50 AM)
Low23 °F (Nov 22, 7:20 AM)60% (Nov 21, 6:50 PM)29.56 "Hg (Nov 17, 2:50 PM)
Average47 °F84%29.90 "Hg
* Reported Nov 15 6:20 PM — Nov 30 6:20 PM, Haywards Heath, Weather by CustomWeather, © 2015

Note: Actual official high and low records may vary slightly from our data, if they occured in-between our weather recording intervals... More about our weather records


Haywards Heath weather history for previous 24 hours

Time TempWeatherWind HumidityBarometerVisibility
6:20 PM
Mon, Nov 30
55 °FPassing clouds.17 mph82%29.98 "HgN/A
5:50 PM55 °FPassing clouds.18 mph82%29.98 "HgN/A
5:20 PM55 °FPassing clouds.17 mph82%29.98 "HgN/A
4:50 PM54 °FPartly cloudy.17 mph88%29.95 "HgN/A
4:20 PM54 °FLight rain. Partly cloudy.18 mph88%29.95 "Hg5 mi
3:50 PM54 °FBroken clouds.20 mph88%29.95 "HgN/A
3:20 PM54 °FLight rain. Broken clouds.21 mph88%29.92 "HgN/A
2:50 PM54 °FDrizzle. Partly sunny.20 mph88%29.95 "Hg3 mi
2:20 PM54 °FDrizzle. Partly sunny.18 mph88%29.95 "Hg5 mi
1:50 PM54 °FPartly sunny.21 mph88%29.95 "HgN/A
1:20 PM54 °FPartly sunny.22 mph88%29.95 "HgN/A
12:50 PM54 °FPartly sunny.20 mph82%29.98 "HgN/A
12:20 PM54 °FBroken clouds.16 mph88%29.98 "HgN/A
11:50 AM52 °FLight rain. Partly sunny.17 mph94%29.98 "Hg4 mi
11:20 AM54 °FBroken clouds.17 mph82%30.01 "HgN/A
10:50 AM54 °FPartly sunny.18 mph77%30.01 "HgN/A
10:20 AM54 °FPartly sunny.16 mph82%30.01 "HgN/A
9:50 AM54 °FPartly sunny.15 mph82%30.01 "HgN/A
9:20 AM54 °FBroken clouds.14 mph82%30.04 "HgN/A
8:50 AM54 °FPartly sunny.16 mph82%30.04 "HgN/A
8:20 AM54 °FPartly sunny.16 mph82%30.04 "HgN/A
6:50 AM52 °FScattered showers. Partly cloudy.9 mph94%30.04 "HgN/A
6:20 AM50 °FPassing clouds.9 mph94%30.04 "HgN/A
5:50 AM48 °FLight rain. Partly cloudy.8 mph100%30.07 "HgN/A
5:20 AM48 °FLight rain. Passing clouds.7 mph94%30.07 "Hg6 mi
4:50 AM48 °FLight rain. Passing clouds.6 mph94%30.07 "HgN/A
4:20 AM48 °FLight rain. Passing clouds.6 mph87%30.09 "HgN/A
3:50 AM48 °FPassing clouds.6 mph82%30.09 "HgN/A
2:50 AM48 °FPartly cloudy.7 mph82%30.09 "HgN/A
2:20 AM48 °FPassing clouds.9 mph82%30.09 "HgN/A
12:50 AM48 °FPassing clouds.9 mph87%30.07 "HgN/A
12:20 AM50 °FPassing clouds.13 mph82%30.04 "HgN/A
11:50 PM
Sun, Nov 29
48 °FPassing clouds.14 mph87%30.04 "HgN/A
10:50 PM50 °FPassing clouds.16 mph88%30.01 "HgN/A
10:20 PM50 °FLight rain. Partly cloudy.17 mph94%29.98 "HgN/A
9:50 PM52 °FLight rain. Partly cloudy.17 mph88%29.98 "Hg4 mi
9:20 PM52 °FLight rain. Partly cloudy.18 mph88%29.95 "Hg5 mi
8:50 PM54 °FLight rain. Partly cloudy.20 mph82%29.95 "Hg6 mi
8:20 PM54 °FSprinkles. Partly cloudy.15 mph82%29.92 "Hg6 mi
7:50 PM54 °FSprinkles. Passing clouds.18 mph82%29.92 "Hg6 mi
7:20 PM54 °FScattered showers. Partly cloudy.18 mph82%29.89 "HgN/A
Weather by CustomWeather, © 2015

See weather overviewHow to use our weather pages